Probability
0 0 0 0 0 0 0 0 0 0 0 0 0 0 0 0 0 0 0 0 0 0 0 0 0 0 0 0 0 0 0 0 0 0 0 0 0 0 0 0 0 0 0 0
0 0 0 0 0 0 0 0 0 0 0 0 0 0 0 0 0 0 0 0 0 0 0 0 0 0 0 0 0 0 0 0 0 0 0 0 0 0 0 0 0 0 0 0
0 0 0 0 0 0 0 0 0 0 0 0 0 0 0 0 0 0 0 0 0 0 0 0 0 0 0 0 0 0 0 0 0 0 0 0 0 0 0 0 0 0 0 0
0 0 0 0 0 0 0 0 0 0 0 0 0 0 0 0 0 0 0 0 0 0 0 0 0 0 0 0 0 0 0 0 0 0 0 0 0 0 0 0 0 0 0 0
0 0 0 0 0 0 0 0 0 0 0 0 0 0 0 0 0 0 0 0 0 0 0 0 0 0 0 0 0 0 0 0 0 0 0 0 0 0 0 0 0 0 0 0
0 0 0 0 0 0 0 0 0 0 0 0 0 0 0 0 0 0 0 0 0 0 0 0 0 0 0 0 0 0 0 0 0 0 0 0 0 0 0 0 0 0 0 0
0 0 0 0 0 0 0 0 0 0 0 0 0 0 0 0 0 0 0 0 0 0 0 0 0 0 0 0 0 0 0 0 0 0 0 0 0 0 0 0 0 0 0 0
0 0 0 0 0 0 0 0 0 0 0 0 0 0 0 0 0 0 0 0 0 0 0 0 0 0 0 0 0 0 0 0 0 0 0 0 0 0 0 0 0 0 0 0
0 0 0 0 0 0 0 0 0 0 0 0 0 0 0 0 0 0 0 0 0 0 0 0 0 0 0 0 0 0 0 0 0 0 0 0 0 0 0 0 0 0 0 0
0 0 0 0 0 0 0 0 0 0 0 0 0 0 0 0 0 0 0 0 0 0 0 0 0 0 0 0 0 0 0 0 0 0 0 0 0 0 0 0 0 0 0 0
0 0 0 0 0 0 0 0 0 0 0 0 0 0 0 0 0 0 0 0 0 0 0 0 0 0 0 0 0 0 0 0 0 0 0 0 0 0 0 0 0 0 0 0
0 0 0 0 0 0 0 0 0 0 0 0 0 0 0 0 0 0 0 0 0 0 0 0 0 0 0 0 0 0 0 0 0 0 0 0 0 0 0 0 0 0 0 0
0 0 0 0 0 0 0 0 0 0 0 0 0 0 0 0 0 0 0 0 0 0 0 0 0 0 0 0 0 0 0 0 0 0 0 0 0 0 0 0 0 0 0 0
0 0 0 0 0 0 0 0 0 0 0 0 0 0 0 0 0 0 0 0 0 0 0 0 0 0 0 0 0 0 0 0 0 0 0 0 0 0 0 0 0 0 0 0
0 0 0 0 0 0 0 0 0 0 0 0 0 0 0 0 0 0 0 0 0 0 0 0 0 0 0 0 0 0 0 0 0 0 0 0 0 0 0 0 0 0 0 0
0 0 0 0 0 0 0 0 0 0 0 0 0 0 0 0 0 0 0 0 0 0 0 0 0 0 0 0 0 0 0 0 0 0 0 0 0 0 0 0 0 0 0 0
0 0 0 0 0 0 0 0 0 0 0 0 0 0 0 0 0 0 0 0 0 0 0 0 0 0 0 0 0 0 0 0 0 0 0 0 0 0 0 0 0 0 0 0
0 0 0 0 0 0 0 0 0 0 0 0 0 0 0 0 0 0 0 0 0 0 0 0 0 0 0 0 0 0 0 0 0 0 0 0 0 0 0 0 0 0 0 0
0 0 0 0 0 0 0 0 0 0 0 0 0 0 0 0 0 0 0 0 0 0 0 0 0 0 0 0 0 0 0 0 0 0 0 0 0 0 0 0 0 0 0 0
0 0 0 0 0 0 0 0 0 0 0 0 0 0 0 0 0 0 0 0 0 0 0 0 0 0 0 0 0 0 0 0 0 0 0 0 0 0 0 0 0 0 0 0
0 0 0 0 0 0 0 0 0 0 0 0 0 0 0 0 0 0 0 0 0 0 0 0 0 0 0 0 0 0 0 0 0 0 0 0 0 0 0 0 0 0 0 0
0 0 0 0 0 0 0 0 0 0 0 0 0 0 0 0 0 0 0 0 0 0 0 0 0 0 0 0 0 0 0 0 0 0 0 0 0 0 0 0 0 0 0 0
0 0 0 0 0 0 0 0 0 0 0 0 0 0 0 0 0 0 0 0 0 0 0 0 0 0 0 0 0 0 0 0 0 0 0 0 0 0 0 0 0 0 0 0
0 0 0 0 0 0 0 0 0 0 0 0 0 0 0 0 0 0 0 0 0 0 0 0 0 0 0 0 0 0 0 0 0 0 0 0 0 0 0 0 0 0 0 0
0 0 0 0 0 0 0 0 0 0 0 0 0 0 0 0 0 0 0 0 0 0 0 0 0 0 0 0 0 0 0 0 0 0 0 0 0 0 0 0 0 0 0 0
0 0 0 0 0 0 0 0 0 0 0 0 0 0 0 0 0 0 0 0 0 0 0 0 0 0 0 0 0 0 0 0 0 0 0 0 0 0 0 0 0 0 0 0
Height
5684 5686 5687 5686 5685 5684 5684 5684 5684 5685 5685 5686 5689 5692 5697 5701 5704 5709 5713 5717 5722 5726 5729 5732 5735 5739 5743 5746 5748 5750 5752 5754 5755 5757 5758 5759 5760 5761 5762 5764 5764 5765 5764 5764
5676 5677 5676 5675 5674 5674 5673 5672 5672 5673 5672 5672 5675 5679 5684 5689 5694 5699 5703 5707 5712 5717 5720 5723 5727 5730 5735 5738 5740 5743 5745 5747 5749 5751 5752 5753 5754 5755 5756 5757 5758 5758 5758 5757
5666 5668 5665 5664 5663 5662 5661 5660 5659 5658 5658 5659 5660 5665 5673 5677 5681 5687 5692 5697 5702 5707 5711 5714 5718 5722 5726 5730 5733 5735 5738 5740 5742 5744 5745 5747 5748 5749 5750 5751 5751 5751 5750 5749
5657 5657 5655 5653 5652 5649 5649 5647 5645 5643 5643 5645 5647 5646 5660 5665 5669 5675 5682 5687 5692 5696 5700 5705 5710 5714 5718 5722 5725 5728 5731 5733 5735 5737 5739 5740 5741 5742 5743 5744 5744 5743 5743 5741
5647 5646 5644 5643 5641 5636 5635 5633 5632 5630 5628 5630 5633 5630 5641 5652 5657 5664 5670 5675 5680 5685 5690 5696 5701 5706 5710 5714 5717 5721 5724 5726 5728 5730 5732 5733 5734 5735 5736 5737 5736 5736 5735 5734
5637 5635 5633 5632 5629 5625 5622 5620 5618 5615 5613 5614 5621 5615 5622 5637 5646 5652 5657 5661 5667 5673 5680 5686 5692 5697 5702 5706 5710 5713 5717 5719 5721 5723 5725 5726 5727 5728 5729 5729 5729 5728 5727 5725
5628 5627 5623 5621 5618 5614 5610 5608 5604 5601 5599 5600 5604 5600 5608 5623 5629 5635 5642 5647 5653 5661 5668 5675 5682 5689 5694 5699 5703 5706 5709 5712 5714 5716 5718 5719 5720 5721 5721 5721 5721 5720 5719 5716
5618 5618 5615 5611 5607 5603 5600 5596 5593 5589 5586 5586 5585 5585 5596 5606 5609 5617 5626 5633 5640 5649 5657 5665 5673 5680 5686 5691 5695 5698 5702 5705 5707 5709 5711 5712 5713 5714 5714 5713 5713 5712 5710 5708
5609 5609 5606 5601 5597 5593 5590 5586 5584 5578 5573 5570 5570 5574 5581 5588 5591 5600 5610 5619 5627 5637 5646 5655 5663 5671 5677 5682 5687 5691 5695 5698 5700 5702 5704 5705 5706 5706 5706 5705 5704 5703 5701 5698
5601 5600 5598 5593 5589 5585 5581 5577 5572 5567 5563 5559 5560 5563 5568 5573 5576 5584 5595 5606 5616 5625 5635 5645 5654 5662 5669 5674 5679 5684 5687 5691 5694 5696 5697 5698 5698 5698 5698 5697 5696 5694 5692 5689
5595 5593 5591 5587 5583 5578 5573 5568 5563 5559 5556 5553 5550 5556 5560 5561 5565 5573 5584 5595 5606 5617 5628 5638 5647 5655 5662 5668 5673 5677 5681 5685 5687 5689 5690 5691 5691 5691 5690 5689 5688 5686 5683 5680
5589 5587 5584 5582 5577 5571 5565 5561 5557 5553 5550 5547 5545 5549 5553 5555 5559 5567 5578 5589 5600 5611 5622 5632 5641 5649 5656 5662 5667 5671 5675 5678 5681 5682 5683 5684 5684 5683 5682 5681 5679 5677 5674 5670
5585 5583 5579 5576 5573 5566 5560 5555 5551 5548 5545 5542 5540 5545 5548 5551 5555 5563 5574 5586 5597 5607 5617 5627 5635 5643 5650 5656 5661 5665 5669 5672 5674 5676 5676 5677 5676 5676 5675 5673 5671 5668 5664 5660
5581 5580 5577 5572 5566 5560 5556 5552 5548 5545 5542 5541 5540 5543 5547 5550 5555 5564 5574 5585 5595 5605 5614 5623 5631 5639 5645 5651 5656 5659 5663 5666 5668 5669 5670 5670 5669 5668 5667 5665 5662 5659 5654 5650
5578 5577 5573 5568 5563 5558 5554 5551 5547 5544 5544 5543 5543 5544 5548 5552 5559 5567 5577 5586 5596 5605 5613 5621 5629 5635 5641 5646 5651 5654 5658 5660 5662 5663 5663 5663 5662 5661 5659 5656 5653 5649 5644 5639
5576 5575 5571 5567 5562 5557 5554 5551 5549 5547 5547 5547 5547 5550 5553 5558 5564 5572 5580 5589 5597 5605 5612 5619 5626 5632 5637 5642 5646 5649 5652 5654 5655 5656 5656 5656 5655 5653 5650 5647 5643 5638 5633 5627
5574 5573 5570 5567 5563 5559 5557 5554 5552 5551 5551 5551 5552 5556 5559 5564 5570 5577 5584 5591 5598 5605 5611 5618 5624 5629 5634 5638 5641 5644 5646 5648 5650 5650 5650 5648 5646 5644 5641 5637 5633 5628 5622 5616
5573 5571 5570 5568 5566 5562 5562 5558 5556 5555 5555 5556 5558 5561 5565 5570 5575 5581 5587 5594 5600 5605 5611 5617 5622 5627 5631 5634 5637 5640 5642 5643 5643 5643 5642 5640 5638 5635 5632 5627 5622 5617 5611 5604
5572 5571 5570 5569 5567 5566 5565 5563 5561 5561 5562 5563 5565 5567 5570 5575 5580 5586 5591 5596 5601 5606 5611 5616 5620 5624 5628 5631 5633 5635 5636 5637 5636 5635 5634 5632 5629 5626 5622 5617 5612 5606 5600 5593
5571 5571 5571 5571 5569 5569 5569 5568 5567 5568 5568 5569 5571 5574 5577 5580 5585 5590 5594 5598 5603 5607 5611 5615 5619 5622 5625 5627 5629 5630 5630 5630 5629 5628 5626 5623 5620 5616 5612 5607 5601 5595 5589 5581
5570 5571 5572 5571 5571 5571 5572 5571 5572 5574 5574 5575 5576 5579 5581 5585 5589 5592 5595 5599 5603 5606 5610 5613 5616 5619 5621 5622 5623 5623 5623 5623 5622 5620 5617 5614 5611 5607 5602 5597 5591 5584 5577 5570
5569 5570 5571 5572 5572 5575 5573 5573 5575 5576 5576 5577 5579 5581 5584 5587 5590 5592 5595 5599 5602 5605 5608 5610 5613 5614 5616 5617 5617 5617 5617 5616 5614 5612 5609 5606 5602 5597 5592 5586 5580 5573 5566 5558
5568 5570 5571 5572 5574 5574 5574 5574 5576 5576 5578 5579 5581 5583 5585 5587 5589 5592 5595 5598 5600 5602 5605 5607 5609 5610 5611 5611 5611 5611 5610 5608 5606 5604 5600 5596 5592 5587 5581 5575 5569 5561 5554 5546
5566 5568 5569 5570 5572 5572 5573 5574 5576 5577 5578 5579 5581 5583 5584 5587 5589 5591 5593 5596 5598 5600 5602 5603 5605 5605 5606 5606 5606 5605 5603 5601 5598 5595 5591 5587 5583 5577 5571 5564 5557 5550 5542 5534
5564 5566 5567 5568 5570 5572 5573 5574 5575 5576 5578 5579 5581 5582 5584 5586 5588 5590 5592 5594 5596 5597 5599 5600 5601 5601 5601 5600 5599 5598 5596 5593 5590 5587 5582 5578 5572 5567 5560 5553 5546 5538 5529 5520
5561 5563 5565 5567 5569 5570 5572 5573 5574 5576 5577 5579 5580 5582 5583 5585 5587 5589 5590 5592 5593 5595 5596 5596 5597 5596 5596 5594 5593 5591 5588 5585 5582 5577 5573 5568 5562 5556 5550 5542 5534 5525 5516 5506
Wind_Speed
35 36 37 38 41 43 45 46 47 47 48 49 50 51 49 48 50 50 48 46 43 40 39 40 40 39 38 37 34 33 32 31 29 28 28 28 29 29 29 28 28 29 30 31
38 38 39 42 43 45 46 48 49 49 50 52 52 53 52 51 50 50 50 48 45 43 41 41 40 38 38 37 36 34 33 32 30 29 28 29 29 30 29 29 30 31 31 32
39 40 42 43 45 46 47 49 50 52 53 54 55 54 53 53 52 51 51 49 47 45 44 42 40 38 38 38 37 35 34 33 31 29 28 29 30 30 30 31 31 32 33 34
40 41 42 44 46 48 49 50 53 54 56 56 57 59 52 52 53 53 51 50 49 48 47 44 41 38 37 38 37 36 35 34 32 30 29 29 30 30 31 32 33 34 35 36
40 41 43 44 45 47 49 50 52 54 57 59 58 62 56 50 51 51 51 50 50 49 48 45 42 38 38 38 38 37 35 34 32 30 29 29 30 30 31 32 34 35 36 38
39 41 43 43 44 46 48 49 51 53 56 60 57 61 60 53 49 48 50 51 50 49 48 46 43 40 39 38 38 37 35 34 32 30 29 29 29 30 32 33 35 36 38 39
38 38 39 40 41 42 45 47 50 54 56 59 57 60 60 55 52 48 48 50 51 50 49 47 44 41 39 38 37 37 35 34 32 31 30 29 29 30 32 34 35 37 38 39
36 34 35 36 37 40 42 45 48 52 54 55 54 58 54 53 53 50 47 48 50 50 48 47 44 41 39 38 38 37 35 34 32 31 30 30 30 31 33 34 36 37 38 40
33 30 30 32 35 37 39 41 42 46 49 51 51 49 47 47 50 49 46 47 48 48 47 45 44 42 40 39 38 37 35 34 32 31 30 30 30 32 33 34 35 37 39 40
25 25 26 29 32 32 34 36 37 41 45 47 46 42 37 36 38 40 43 45 46 46 45 43 42 42 40 39 39 37 35 34 33 31 30 30 31 32 33 34 36 38 39 41
23 25 25 27 28 29 30 32 33 36 39 41 40 31 25 26 28 33 38 42 44 43 41 40 41 41 40 39 38 37 35 33 32 31 31 31 31 32 33 34 36 38 40 42
21 23 24 24 25 27 28 28 29 32 33 33 33 19 16 17 22 29 36 39 41 40 39 38 39 39 39 38 37 35 33 33 32 31 31 31 31 32 33 34 36 39 41 43
19 22 24 22 22 24 26 24 23 25 27 27 26 9 11 14 21 29 35 37 38 38 37 38 38 38 38 37 35 33 32 32 31 31 30 30 31 32 33 35 38 40 42 45
17 19 21 21 20 21 22 20 20 21 21 18 12 7 12 17 24 31 35 36 36 36 36 36 36 35 34 34 33 32 31 31 30 29 29 30 30 32 34 37 39 42 44 46
16 17 18 17 17 16 16 13 11 11 9 5 4 8 15 21 27 32 34 34 34 34 33 33 32 31 31 31 30 29 28 28 28 28 28 29 31 33 35 38 41 43 45 47
14 13 14 13 13 14 12 8 5 3 1 4 9 16 20 25 28 31 32 31 31 31 30 29 28 28 28 28 27 26 26 26 26 27 28 29 32 34 37 39 41 44 46 49
10 11 11 11 11 12 12 8 3 1 4 9 15 19 22 25 28 29 28 28 28 27 26 25 25 26 26 25 25 24 24 24 25 26 28 31 33 36 38 40 42 45 48 51
7 8 9 10 10 12 12 10 7 7 10 14 18 21 23 24 26 27 27 26 26 25 24 24 24 23 23 22 22 22 22 23 25 27 30 32 34 36 38 41 44 46 49 52
4 4 5 7 9 9 8 9 8 9 11 15 17 19 22 23 23 24 23 23 23 23 21 21 20 20 19 19 20 21 22 24 27 29 30 32 35 37 40 42 45 48 51 54
5 3 2 4 6 6 6 7 8 10 12 13 14 16 19 19 19 19 19 18 18 18 17 17 17 17 18 19 20 21 23 25 27 29 31 33 36 38 41 43 46 50 53 55
7 4 2 1 2 3 3 4 5 7 8 9 11 12 14 14 14 15 15 15 15 15 15 16 17 18 18 19 20 22 23 25 27 30 32 34 37 39 42 45 48 51 54 56
10 8 6 4 3 1 1 2 3 5 6 7 8 9 10 11 11 11 11 12 13 14 15 15 17 18 18 19 20 22 24 26 28 30 33 35 38 41 44 47 50 52 54 55
13 11 9 8 6 4 3 3 3 3 5 6 7 8 9 10 10 10 11 11 12 13 14 15 16 17 18 19 20 22 24 26 29 31 34 37 40 43 45 48 50 52 53 55
14 13 11 10 9 7 6 5 4 4 5 6 7 8 9 9 10 10 11 12 12 13 14 15 15 16 17 19 21 23 25 27 30 33 36 38 41 44 47 48 50 52 54 56
15 14 14 13 12 11 9 8 7 6 6 7 7 8 8 9 9 10 10 11 11 12 13 14 14 16 18 19 22 24 27 30 32 35 37 40 43 45 47 48 50 52 55 59
16 16 15 15 13 12 10 10 9 8 8 8 9 9 9 9 9 10 10 10 11 11 12 13 15 17 19 21 24 26 29 31 34 36 39 41 43 45 47 48 51 55 59 63
Wind_Direction
270 272 275 275 273 273 273 273 271 269 265 261 258 257 253 248 246 245 246 245 245 244 242 243 245 245 244 245 247 247 246 246 247 248 250 249 249 251 253 256 260 264 269 274
272 275 276 276 276 275 274 273 272 269 266 263 260 256 253 250 247 246 245 244 244 243 242 243 244 243 241 242 244 246 246 245 245 247 249 250 251 252 254 256 260 265 271 276
274 277 278 278 277 275 274 272 270 267 264 263 262 257 253 250 248 245 244 244 243 242 241 242 242 242 240 240 242 245 245 244 244 245 248 250 251 252 254 258 262 267 272 277
276 278 278 278 277 275 273 271 269 267 265 263 261 261 252 249 247 246 244 243 242 241 240 240 240 240 239 239 241 244 245 245 244 244 246 248 250 252 256 260 264 269 274 279
278 278 278 279 278 276 275 272 270 269 267 264 262 261 256 249 246 245 244 242 241 240 239 238 238 237 237 238 239 242 244 245 245 245 246 249 251 254 258 262 266 271 276 280
278 279 280 280 279 278 276 274 272 270 268 265 263 262 256 250 246 243 242 241 239 238 237 236 234 233 235 236 238 241 243 244 245 245 247 250 253 256 260 264 268 273 277 280
278 281 282 282 282 280 278 276 274 271 269 268 266 262 259 253 248 242 239 238 236 235 234 233 232 231 232 234 236 239 242 242 244 245 248 252 256 260 263 267 270 274 278 282
281 283 284 285 284 282 280 277 275 274 273 271 267 263 259 252 249 241 235 233 233 232 231 230 228 226 227 230 233 236 239 240 242 245 249 254 258 262 266 269 273 277 281 285
285 287 288 289 288 287 284 281 277 273 272 270 268 267 260 252 248 241 232 228 227 227 227 225 223 221 222 226 230 233 236 239 242 246 251 255 260 264 268 271 276 280 284 287
288 291 294 295 294 292 288 283 276 272 271 271 271 270 264 252 245 235 225 221 221 221 220 219 218 218 219 223 227 232 235 239 243 248 253 257 262 266 270 274 278 282 286 290
289 296 300 300 298 295 291 286 280 275 273 271 274 271 261 251 236 221 213 212 213 212 212 211 212 215 218 222 226 231 235 239 244 249 254 259 264 269 273 277 281 285 289 292
293 300 305 306 302 301 298 292 282 277 277 275 275 270 247 235 216 205 201 201 203 203 203 203 207 212 217 222 226 230 234 239 244 249 255 261 266 271 275 280 284 288 290 292
294 306 312 313 310 307 306 299 287 280 275 273 272 250 203 193 190 186 187 190 191 193 196 199 205 210 215 221 225 228 232 238 244 250 257 262 267 273 278 282 286 289 291 293
300 312 319 321 318 313 313 304 295 283 280 281 266 190 167 167 171 172 176 180 183 186 191 197 203 209 214 218 222 225 231 238 245 252 258 264 270 275 280 284 287 290 292 293
302 317 326 330 327 320 316 308 298 288 283 264 175 146 143 155 161 166 170 175 180 184 189 195 200 205 211 215 220 225 232 239 246 253 261 267 273 278 282 285 288 291 293 295
304 321 335 343 340 344 340 331 311 307 294 136 141 138 148 154 159 165 169 174 178 182 186 191 196 202 208 213 218 224 232 240 249 257 265 271 277 281 284 287 290 293 295 298
307 326 345 360 358 3 9 3 355 77 134 146 144 147 154 155 161 166 169 173 177 179 183 188 194 200 206 212 219 227 236 246 256 264 270 276 280 283 287 290 293 295 298 301
302 326 345 3 9 10 22 32 61 110 140 146 146 152 157 157 161 166 170 174 176 179 185 191 196 202 209 217 226 236 247 256 264 270 275 279 283 287 290 293 295 298 301 303
276 325 354 15 23 25 39 50 75 104 131 145 148 151 155 158 161 164 169 173 176 180 185 193 201 209 218 228 238 248 257 264 269 274 278 283 286 290 292 295 298 301 303 304
245 280 353 31 38 40 55 64 81 103 124 134 142 148 152 153 156 160 165 171 178 185 193 203 213 223 233 242 250 257 263 268 273 278 282 286 290 293 296 298 301 302 304 305
229 236 243 8 51 57 66 81 96 109 119 129 136 144 151 156 163 167 174 182 192 200 210 220 229 237 244 251 256 262 268 273 278 283 287 290 293 296 298 300 302 304 305 307
223 225 228 236 227 211 153 119 116 120 133 142 151 158 164 170 177 182 191 202 211 218 226 233 240 246 252 257 263 269 274 280 284 287 291 294 296 298 300 302 304 305 307 308
221 224 231 237 239 230 218 202 177 160 162 169 177 183 186 191 197 204 212 218 225 232 236 241 247 254 260 265 271 276 281 285 289 292 295 297 299 301 302 304 306 307 309 310
222 225 229 232 236 234 233 233 222 209 197 192 194 198 201 205 210 216 222 227 233 237 241 248 254 261 267 273 278 283 287 290 293 296 298 299 301 303 305 307 308 309 310 311
223 226 228 230 233 237 242 241 238 232 224 213 204 202 205 209 214 219 224 230 237 244 250 256 264 270 277 282 285 289 292 295 297 299 300 302 304 306 307 309 310 310 311 312
225 226 228 233 236 239 243 241 240 239 237 230 220 216 215 214 217 224 231 237 243 251 259 266 274 280 284 287 290 293 296 298 300 301 303 305 306 308 309 310 311 313 314 315